This is the latest recevied weather packets stored in our database for station/object KD4MBW. If no packets are shown the sender has not sent any weather packets the latest 10 day(s).
| Time | Temp. | Humidity | Pressure | Rain* | Wind** | Luminosity | Snow |
|---|---|---|---|---|---|---|---|
| 1778165535 | 26.11° C | 91% | 1015.1 hPa | 0 mm | - | 290 W/m² | - |
| 1778165232 | 26.67° C | 90% | 1015 hPa | 0 mm | - | 263 W/m² | - |
| 1778164930 | 26.67° C | 90% | 1014.9 hPa | 0 mm | - | 351 W/m² | - |
| 1778164627 | 26.67° C | 89% | 1015 hPa | 0 mm | - | 430 W/m² | - |
| 1778164324 | 26.67° C | 89% | 1014.8 hPa | 0 mm | - | 289 W/m² | - |
| 1778164019 | 26.67° C | 89% | 1014.7 hPa | 0 mm | - | 368 W/m² | - |
| 1778163716 | 26.67° C | 89% | 1014.9 hPa | 0 mm | - | 402 W/m² | - |
| 1778163412 | 26.67° C | 90% | 1014.8 hPa | 0 mm | - | 371 W/m² | - |
| 1778163109 | 26.11° C | 90% | 1014.7 hPa | 0 mm | - | 299 W/m² | - |
| 1778162806 | 26.11° C | 91% | 1014.4 hPa | 0 mm | - | 549 W/m² | - |
| 1778162504 | 26.11° C | 91% | 1014.9 hPa | 0 mm | - | 353 W/m² | - |
| 1778162201 | 26.11° C | 91% | 1014.7 hPa | 0 mm | - | 348 W/m² | - |
| 1778161898 | 26.11° C | 91% | 1014.9 hPa | 0 mm | - | 341 W/m² | - |
| 1778161594 | 25.56° C | 92% | 1014.6 hPa | 0 mm | - | 252 W/m² | - |
| 1778161290 | 25.56° C | 93% | 1015 hPa | 0 mm | - | 383 W/m² | - |
| 1778160986 | 25.56° C | 92% | 1014.7 hPa | 0 mm | - | 321 W/m² | - |
| 1778160684 | 25.56° C | 92% | 1014.9 hPa | 0 mm | - | 436 W/m² | - |
| 1778160381 | 25.56° C | 94% | 1015 hPa | 0 mm | - | 299 W/m² | - |
| 1778160077 | 25° C | 94% | 1015 hPa | 0 mm | - | 189 W/m² | - |
| 1778159774 | 25° C | 94% | 1014.9 hPa | 0 mm | - | 155 W/m² | - |
| 1778159471 | 25° C | 95% | 1015.3 hPa | 0 mm | - | 179 W/m² | - |
| 1778159168 | 25° C | 95% | 1015 hPa | 0 mm | - | 144 W/m² | - |
| 1778158866 | 25° C | 96% | 1014.9 hPa | 0 mm | - | 89 W/m² | - |
| 1778158565 | 25° C | 96% | 1015.2 hPa | 0 mm | - | 112 W/m² | - |
| 1778158261 | 25° C | 96% | 1015 hPa | 0 mm | - | 85 W/m² | - |
* Rain latest hour (hover to see other rain measurements)
** Current wind speed in m/s (hover to see current wind gust speed)